• In Sweden
  • List of Countries
  • For 7 days
  • Water Temperature
  • Satellite Maps
  • Weather Map
  • Weather Widgets
  • user-avatar
    Login

    Hourly Weather Ardahan

    Today, 22 October, Monday

    Time Temperature Precipitation Wind Pressure Humidity
    00:00 +9°C° 0.2 mm 1 mps 609 mmHg 86%
    01:00 +9°C° 0.1 mm 1 mps 609 mmHg 87%
    02:00 +9°C° 0.1 mm 1 mps 608 mmHg 88%
    03:00 +9°C° 0 mm 1 mps 608 mmHg 85%
    04:00 +9°C° 0.2 mm 1 mps 608 mmHg 86%
    05:00 +8°C° 0.2 mm 1 mps 608 mmHg 87%
    06:00 +8°C° 0.2 mm 1 mps 608 mmHg 88%
    07:00 +9°C° 0.1 mm 1 mps 609 mmHg 86%
    08:00 +9°C° 0.1 mm 2 mps 609 mmHg 83%
    09:00 +9°C° 0 mm 2 mps 610 mmHg 79%
    10:00 +10°C° 0.2 mm 2 mps 610 mmHg 75%
    11:00 +12°C° 0.2 mm 2 mps 611 mmHg 72%
    12:00 +13°C° 0.2 mm 2 mps 611 mmHg 68%
    13:00 +12°C° 0.5 mm 3 mps 611 mmHg 67%
    14:00 +12°C° 0.5 mm 3 mps 611 mmHg 66%
    15:00 +12°C° 0.5 mm 3 mps 611 mmHg 65%
    16:00 +12°C° 0.4 mm 2 mps 611 mmHg 72%
    17:00 +10°C° 0.4 mm 2 mps 610 mmHg 79%
    18:00 +10°C° 0.4 mm 1 mps 610 mmHg 86%
    19:00 +9°C° 0.1 mm 1 mps 610 mmHg 88%
    20:00 +9°C° 0.1 mm 1 mps 610 mmHg 89%
    21:00 +8°C° 0.1 mm 1 mps 610 mmHg 91%
    22:00 +8°C° 0 mm 1 mps 610 mmHg 92%
    23:00 +8°C° 0 mm 1 mps 610 mmHg 92%

    Tomorrow, 23 October, Tuesday

    Time Temperature Precipitation Wind Pressure Humidity
    00:00 +6°C° 0 mm 0 mps 610 mmHg 93%
    01:00 +7°C° 0 mm 1 mps 610 mmHg 93%
    02:00 +7°C° 0 mm 1 mps 610 mmHg 92%
    03:00 +6°C° 0 mm 1 mps 609 mmHg 92%
    04:00 +6°C° 0 mm 1 mps 609 mmHg 92%
    05:00 +6°C° 0 mm 1 mps 609 mmHg 92%
    06:00 +6°C° 0 mm 1 mps 609 mmHg 91%
    07:00 +7°C° 0 mm 1 mps 609 mmHg 85%
    08:00 +9°C° 0 mm 1 mps 610 mmHg 79%
    09:00 +10°C° 0 mm 1 mps 611 mmHg 73%
    10:00 +10°C° 0 mm 2 mps 611 mmHg 66%
    11:00 +13°C° 0 mm 2 mps 611 mmHg 59%
    12:00 +14°C° 0 mm 2 mps 611 mmHg 52%
    13:00 +14°C° 0.2 mm 2 mps 611 mmHg 52%
    14:00 +14°C° 0.2 mm 2 mps 611 mmHg 51%
    15:00 +14°C° 0.2 mm 2 mps 610 mmHg 51%
    16:00 +13°C° 0.2 mm 2 mps 610 mmHg 58%
    17:00 +10°C° 0.2 mm 2 mps 609 mmHg 65%
    18:00 +10°C° 0.2 mm 1 mps 609 mmHg 72%
    19:00 +9°C° 0 mm 1 mps 608 mmHg 74%
    20:00 +9°C° 0 mm 1 mps 608 mmHg 76%
    21:00 +8°C° 0 mm 1 mps 608 mmHg 78%
    22:00 +8°C° 0 mm 1 mps 608 mmHg 79%
    23:00 +8°C° 0 mm 1 mps 608 mmHg 79%

    Day after tomorrow, 24 October, Wednesday

    Time Temperature Precipitation Wind Pressure Humidity
    00:00 +8°C° 0 mm 1 mps 607 mmHg 80%
    01:00 +8°C° 0.2 mm 1 mps 607 mmHg 81%
    02:00 +8°C° 0.2 mm 1 mps 607 mmHg 82%
    03:00 +7°C° 0.2 mm 1 mps 607 mmHg 83%
    04:00 +7°C° 0.1 mm 1 mps 606 mmHg 85%
    05:00 +7°C° 0.1 mm 1 mps 606 mmHg 87%
    06:00 +5°C° 0.1 mm 2 mps 606 mmHg 90%
    07:00 +7°C° 0 mm 2 mps 606 mmHg 85%
    08:00 +8°C° 0 mm 2 mps 606 mmHg 81%
    09:00 +9°C° 0 mm 3 mps 607 mmHg 76%
    10:00 +10°C° 0.2 mm 3 mps 607 mmHg 72%
    11:00 +11°C° 0.2 mm 4 mps 606 mmHg 67%
    12:00 +12°C° 0.2 mm 4 mps 606 mmHg 62%
    13:00 +12°C° 0.5 mm 4 mps 606 mmHg 61%
    14:00 +12°C° 0.5 mm 4 mps 605 mmHg 60%
    15:00 +12°C° 0.5 mm 4 mps 605 mmHg 59%
    16:00 +11°C° 0.6 mm 3 mps 604 mmHg 65%
    17:00 +10°C° 0.6 mm 3 mps 604 mmHg 72%
    18:00 +9°C° 0.6 mm 2 mps 603 mmHg 78%
    19:00 +9°C° 0.4 mm 2 mps 603 mmHg 80%
    20:00 +8°C° 0.4 mm 2 mps 603 mmHg 82%
    21:00 +8°C° 0.4 mm 2 mps 603 mmHg 84%
    22:00 +8°C° 0.1 mm 3 mps 602 mmHg 85%
    23:00 +8°C° 0.1 mm 3 mps 602 mmHg 87%

    25 October, Thursday

    Time Temperature Precipitation Wind Pressure Humidity
    00:00 +7°C° 0.1 mm 3 mps 602 mmHg 88%
    01:00 +7°C° 0.1 mm 3 mps 601 mmHg 88%
    02:00 +7°C° 0.1 mm 3 mps 601 mmHg 89%
    03:00 +7°C° 0.1 mm 3 mps 601 mmHg 89%
    04:00 +7°C° 0.1 mm 3 mps 601 mmHg 89%
    05:00 +6°C° 0.1 mm 4 mps 600 mmHg 89%
    06:00 +6°C° 0.1 mm 4 mps 600 mmHg 89%
    07:00 +7°C° 0.2 mm 5 mps 600 mmHg 84%
    08:00 +8°C° 0.2 mm 6 mps 600 mmHg 79%
    09:00 +9°C° 0.2 mm 6 mps 600 mmHg 74%
    10:00 +9°C° 0.3 mm 7 mps 600 mmHg 71%
    11:00 +10°C° 0.3 mm 8 mps 599 mmHg 69%
    12:00 +10°C° 0.3 mm 9 mps 599 mmHg 66%
    13:00 +9°C° 3.3 mm 8 mps 599 mmHg 73%
    14:00 +8°C° 3.3 mm 7 mps 598 mmHg 80%
    15:00 +5°C° 3.3 mm 6 mps 597 mmHg 87%
    16:00 +5°C° 3 mm 5 mps 597 mmHg 89%
    17:00 +4°C° 3 mm 4 mps 598 mmHg 91%
    18:00 +3°C° 3 mm 3 mps 598 mmHg 93%
    19:00 +2°C° 1.5 mm 3 mps 598 mmHg 93%
    20:00 +2°C° 1.5 mm 3 mps 598 mmHg 94%
    21:00 +1°C° 1.5 mm 3 mps 599 mmHg 94%
    22:00 +1°C° 2.1 mm 3 mps 598 mmHg 94%
    23:00 0°C° 2.1 mm 3 mps 598 mmHg 95%

    26 October, Friday

    Time Temperature Precipitation Wind Pressure Humidity
    00:00 -1°C° 2.1 mm 3 mps 598 mmHg 95%
    01:00 -1°C° 2.2 mm 3 mps 598 mmHg 95%
    02:00 -2°C° 2.2 mm 3 mps 598 mmHg 96%
    03:00 -2°C° 2.2 mm 2 mps 598 mmHg 96%
    04:00 -2°C° 0.6 mm 2 mps 599 mmHg 96%
    05:00 -3°C° 0.6 mm 2 mps 599 mmHg 96%
    06:00 -3°C° 0.6 mm 2 mps 600 mmHg 96%
    07:00 -2°C° 0.3 mm 2 mps 600 mmHg 95%
    08:00 -2°C° 0.3 mm 2 mps 601 mmHg 94%
    09:00 0°C° 0.3 mm 1 mps 601 mmHg 93%
    10:00 -1°C° 0.3 mm 2 mps 602 mmHg 93%
    11:00 -1°C° 0.3 mm 2 mps 602 mmHg 93%
    12:00 +1°C° 0.3 mm 2 mps 603 mmHg 92%
    13:00 +1°C° 0.1 mm 2 mps 603 mmHg 91%
    14:00 +1°C° 0.1 mm 2 mps 603 mmHg 89%
    15:00 +1°C° 0.1 mm 2 mps 604 mmHg 88%
    16:00 -1°C° 0 mm 2 mps 604 mmHg 88%
    17:00 -3°C° 0 mm 2 mps 604 mmHg 89%
    18:00 -2°C° 0 mm 1 mps 604 mmHg 89%
    19:00 -4°C° 0.2 mm 2 mps 605 mmHg 90%
    20:00 -4°C° 0.2 mm 2 mps 605 mmHg 90%
    21:00 -5°C° 0.2 mm 2 mps 606 mmHg 91%
    22:00 -5°C° 0.3 mm 2 mps 606 mmHg 91%
    23:00 -5°C° 0.3 mm 2 mps 606 mmHg 90%

    27 October, Saturday

    Time Temperature Precipitation Wind Pressure Humidity
    00:00 -5°C° 0.3 mm 2 mps 607 mmHg 90%
    01:00 -5°C° 0.3 mm 2 mps 607 mmHg 90%
    02:00 -5°C° 0.3 mm 2 mps 608 mmHg 90%
    03:00 -5°C° 0.3 mm 2 mps 608 mmHg 90%
    04:00 -5°C° 0.2 mm 2 mps 609 mmHg 90%
    05:00 -5°C° 0.2 mm 2 mps 609 mmHg 91%
    06:00 -6°C° 0.2 mm 2 mps 609 mmHg 91%
    07:00 -5°C° 0 mm 2 mps 610 mmHg 91%
    08:00 -4°C° 0 mm 2 mps 611 mmHg 91%
    09:00 -3°C° 0 mm 2 mps 612 mmHg 91%
    10:00 -2°C° 0 mm 2 mps 612 mmHg 89%
    11:00 -1°C° 0 mm 2 mps 612 mmHg 88%
    12:00 +2°C° 0 mm 2 mps 612 mmHg 87%
    13:00 +3°C° 0 mm 1 mps 612 mmHg 87%
    14:00 +3°C° 0 mm 1 mps 612 mmHg 86%
    15:00 +3°C° 0 mm 1 mps 612 mmHg 86%
    16:00 +2°C° 0 mm 1 mps 612 mmHg 86%
    17:00 0°C° 0 mm 1 mps 611 mmHg 85%
    18:00 -1°C° 0 mm 1 mps 611 mmHg 85%
    19:00 -2°C° 0 mm 1 mps 611 mmHg 82%
    20:00 -2°C° 0 mm 1 mps 611 mmHg 80%
    21:00 -2°C° 0 mm 1 mps 611 mmHg 78%
    22:00 -4°C° 0 mm 2 mps 611 mmHg 76%
    23:00 -4°C° 0 mm 2 mps 611 mmHg 74%

    28 October, Sunday

    Time Temperature Precipitation Wind Pressure Humidity
    00:00 -4°C° 0 mm 2 mps 612 mmHg 72%
    01:00 -4°C° 0 mm 2 mps 612 mmHg 71%
    02:00 -4°C° 0 mm 2 mps 612 mmHg 70%
    03:00 -4°C° 0 mm 2 mps 612 mmHg 69%
    04:00 -4°C° 0 mm 2 mps 612 mmHg 69%
    05:00 -4°C° 0 mm 2 mps 612 mmHg 68%
    06:00 -4°C° 0 mm 2 mps 612 mmHg 68%
    07:00 -2°C° 0 mm 2 mps 613 mmHg 69%
    08:00 -1°C° 0 mm 2 mps 613 mmHg 71%
    09:00 +2°C° 0 mm 2 mps 614 mmHg 73%
    10:00 +3°C° 0 mm 2 mps 614 mmHg 76%
    11:00 +4°C° 0 mm 2 mps 614 mmHg 79%
    12:00 +5°C° 0 mm 2 mps 615 mmHg 82%
    13:00 +7°C° 0 mm 1 mps 614 mmHg 80%
    14:00 +7°C° 0 mm 1 mps 614 mmHg 78%
    15:00 +7°C° 0 mm 1 mps 614 mmHg 75%
    16:00 +5°C° 0 mm 1 mps 613 mmHg 72%
    17:00 +2°C° 0 mm 2 mps 613 mmHg 68%
    18:00 +1°C° 0 mm 2 mps 612 mmHg 65%
    19:00 -1°C° 0 mm 2 mps 612 mmHg 63%
    20:00 -1°C° 0 mm 2 mps 612 mmHg 61%
    21:00 -1°C° 0 mm 2 mps 612 mmHg 59%
    22:00 -1°C° 0 mm 2 mps 612 mmHg 59%
    23:00 -1°C° 0 mm 2 mps 612 mmHg 58%
    Show more